{"data":{"norad_id":51984,"intl_designator":"2022-025AE","name":"STARLINK-3664","alt_names":[],"object_type":"PAYLOAD","status":"ACTIVE","operator":null,"country":"US","launch_date":"2022-03-09","launch_site_code":"AFETR","launch_vehicle":null,"mission":null,"orbit_class":"UNKNOWN","rcs_meters":null,"size_class":null,"mass_kg":null,"dimensions":null,"purposes":["comms"],"wikipedia_slug":null,"has_3d_model":false,"image_url":null,"decayed_at":null,"tle_current":{"epoch":"2026-05-25T03:45:38.320992Z","epoch_age_seconds":62324,"freshness":"FRESH","line1":"1 51984U 22025AE  26145.15669353  .00000218  00000+0  31775-4 0  9991","line2":"2 51984  53.2153  55.9314 0001443  91.7403 268.3755 15.08841324232606","mean_motion":15.08841324,"eccentricity":0.0001443,"inclination_deg":53.2153,"raan_deg":55.9314,"arg_perigee_deg":91.7403,"mean_anomaly_deg":268.3755,"bstar":3.1775e-5,"rev_number":23260,"period_min":95.437470931834,"perigee_km":538.74109247258,"apogee_km":540.73759158489,"semimajor_km":6917.8763420287,"source":"CELESTRAK","updated_at":"2026-05-25T13:38:16.996000Z"}}}